EW1600 Weather Reports


time (UTC)temp
F
wind
direction
speed
knots
gust
knots
rain 1hr
in
rain 24hr
in
rain mn
in
humidity
%
barometer
mb
20260508030004 41 136 1.7 4.3 0.00 0.00 0.00 73 1017.3
20260508025503 40 111 0.9 4.3 0.00 0.00 0.00 74 1017.2
20260508025004 40 76 1.7 5.2 0.00 0.00 0.00 74 1017.2
20260508024504 40 82 1.7 4.3 0.00 0.00 0.00 74 1017.2
20260508024004 40 100 1.7 2.6 0.00 0.00 0.00 73 1017.2
20260508023504 41 71 1.7 5.2 0.00 0.00 0.00 73 1017.2
20260508023004 41 117 1.7 4.3 0.00 0.00 0.00 73 1017.3
20260508022504 40 105 0.9 2.6 0.00 0.00 0.00 74 1017.3
20260508021503 40 105 0.9 2.6 0.00 0.00 0.00 76 1017.3
20260508020504 40 109 2.6 4.3 0.00 0.00 0.00 77 1017.4
20260508015003 40 129 2.6 6.1 0.00 0.00 0.00 78 1017.4
20260508014504 39 139 1.7 4.3 0.00 0.01 0.00 78 1017.4
20260508014004 39 119 1.7 4.3 0.00 0.01 0.00 78 1017.4
20260508013504 40 103 1.7 4.3 0.00 0.01 0.00 77 1017.4
20260508013004 40 128 2.6 6.1 0.00 0.01 0.00 77 1017.4
20260508012503 40 135 2.6 6.1 0.00 0.01 0.00 77 1017.5
20260508012003 40 101 2.6 7.0 0.00 0.01 0.00 78 1017.4
20260508011504 40 127 2.6 6.1 0.00 0.01 0.00 77 1017.5
20260508011004 40 104 2.6 7.0 0.00 0.01 0.00 77 1017.6
20260508010504 40 117 3.5 6.1 0.00 0.01 0.00 77 1017.5
20260508010004 40 109 2.6 7.0 0.00 0.01 0.00 77 1017.5
20260508005504 40 97 2.6 6.1 0.00 0.01 0.00 77 1017.6
20260508005004 40 108 2.6 5.2 0.00 0.01 0.00 77 1017.6
20260508004504 40 109 1.7 2.6 0.00 0.01 0.00 77 1017.6
20260508004003 40 120 1.7 2.6 0.00 0.01 0.00 77 1017.7
20260508003504 40 131 1.7 5.2 0.00 0.01 0.00 77 1017.8
20260508003005 40 107 0.9 2.6 0.00 0.01 0.00 77 1017.9
20260508002504 40 87 1.7 7.0 0.00 0.01 0.00 77 1017.9
20260508002003 39 100 0.9 2.6 0.00 0.02 0.00 77 1017.9
20260508001504 39 100 0.9 2.6 0.00 0.02 0.00 78 1018.0
20260508001004 39 94 0.9 1.7 0.00 0.02 0.00 78 1018.1
20260508000504 39 11 0.0 1.7 0.00 0.02 0.00 78 1018.1
20260508000004 39 65 0.9 1.7 0.00 0.02 0.00 78 1018.1
20260507235504 39 5 0.0 1.7 0.00 0.03 0.00 78 1018.0
20260507235004 39 24 0.9 2.6 0.00 0.03 0.00 78 1018.1
20260507234504 39 61 0.0 1.7 0.00 0.03 0.00 78 1018.1
20260507234004 39 94 0.0 0.9 0.00 0.03 0.00 78 1018.1
20260507233503 39 93 0.0 1.7 0.00 0.04 0.00 77 1018.2
20260507232504 39 74 0.9 2.6 0.00 0.04 0.00 77 1018.1
20260507232004 39 69 0.9 2.6 0.00 0.04 0.00 77 1018.1
20260507231504 39 95 0.9 2.6 0.00 0.04 0.00 77 1018.1
20260507230004 39 102 0.9 2.6 0.00 0.06 0.00 76 1018.0
20260507225503 40 115 1.7 2.6 0.00 0.06 0.00 76 1018.0
20260507225004 39 122 1.7 2.6 0.00 0.08 0.00 76 1018.1
20260507224504 39 111 0.9 4.3 0.00 0.09 0.00 76 1018.1
20260507224004 39 104 1.7 5.2 0.00 0.10 0.00 76 1018.1
20260507223503 39 90 1.7 2.6 0.00 0.11 0.00 76 1018.1
20260507222004 39 95 1.7 5.2 0.00 0.13 0.00 75 1018.2
20260507221504 39 91 0.9 2.6 0.00 0.13 0.00 75 1018.3
20260507220504 39 101 0.9 5.2 0.00 0.13 0.00 74 1018.4
20260507220004 39 93 1.7 2.6 0.00 0.14 0.00 75 1018.4
20260507215504 39 87 2.6 6.1 0.00 0.15 0.14 75 1018.4
20260507215004 39 86 1.7 2.6 0.00 0.15 0.14 74 1018.4
20260507214504 39 90 0.9 2.6 0.00 0.16 0.14 74 1018.4
20260507214004 39 80 1.7 2.6 0.00 0.16 0.14 74 1018.5
20260507213004 40 78 1.7 4.3 0.00 0.17 0.14 74 1018.5
20260507212503 39 94 1.7 2.6 0.00 0.17 0.14 74 1018.5
20260507212004 39 82 0.9 1.7 0.00 0.17 0.14 74 1018.6
20260507211503 40 56 0.9 2.6 0.00 0.17 0.14 74 1018.6
20260507211004 40 73 0.9 2.6 0.00 0.17 0.14 73 1018.6
20260507210504 40 76 0.9 2.6 0.00 0.17 0.14 73 1018.6
20260507210005 40 84 0.9 2.6 0.00 0.17 0.14 73 1018.6
20260507205004 40 98 0.9 2.6 0.00 0.17 0.14 73 1018.6
20260507204505 40 99 0.9 2.6 0.00 0.17 0.14 72 1018.6
20260507204004 40 93 1.7 2.6 0.00 0.17 0.14 72 1018.6
20260507203504 40 86 1.7 2.6 0.00 0.17 0.14 72 1018.6
20260507203004 40 77 1.7 5.2 0.00 0.17 0.14 71 1018.6
20260507202503 41 111 1.7 5.2 0.00 0.17 0.14 71 1018.6
20260507202005 41 91 1.7 2.6 0.00 0.17 0.14 71 1018.5
20260507201504 41 92 1.7 5.2 0.00 0.17 0.14 71 1018.5
20260507201004 41 105 1.7 2.6 0.00 0.17 0.14 70 1018.5
20260507200503 41 100 1.7 4.3 0.00 0.17 0.14 70 1018.5
20260507200004 41 86 1.7 2.6 0.00 0.17 0.14 70 1018.5
20260507195503 42 116 1.7 2.6 0.00 0.17 0.14 69 1018.5
20260507194503 42 105 0.9 2.6 0.00 0.17 0.14 70 1018.5
20260507194003 42 119 0.9 2.6 0.00 0.17 0.14 69 1018.6
20260507193004 42 131 0.9 0.9 0.00 0.17 0.14 68 1018.6
20260507192004 43 111 0.0 0.9 0.00 0.17 0.14 68 1018.5
20260507191503 43 109 0.0 0.9 0.00 0.17 0.14 67 1018.5
20260507191003 43 107 0.0 0.9 0.00 0.17 0.14 66 1018.5
20260507190504 44 112 0.9 2.6 0.00 0.17 0.14 66 1018.5
20260507190004 44 138 0.0 2.6 0.00 0.17 0.14 64 1018.4
20260507185504 44 91 0.9 2.6 0.00 0.17 0.14 63 1018.4
20260507185004 45 110 0.0 2.6 0.00 0.17 0.14 63 1018.4
20260507184504 45 91 0.9 2.6 0.00 0.17 0.14 62 1018.4
20260507184003 45 106 0.0 1.7 0.00 0.17 0.14 61 1018.4
20260507183504 45 114 0.9 1.7 0.00 0.17 0.14 60 1018.4
20260507183004 45 107 0.9 1.7 0.00 0.17 0.14 60 1018.5
20260507182504 46 115 0.9 1.7 0.00 0.17 0.14 59 1018.4
20260507182004 46 127 0.9 2.6 0.00 0.17 0.14 59 1018.4
20260507181004 46 155 0.9 2.6 0.00 0.17 0.14 58 1018.4
20260507180503 46 121 0.0 2.6 0.00 0.17 0.14 58 1018.4
20260507180004 46 106 0.9 2.6 0.00 0.17 0.14 58 1018.5
20260507175504 47 84 0.9 2.6 0.00 0.17 0.14 56 1018.5
20260507175004 47 101 0.9 4.3 0.00 0.17 0.14 57 1018.4
20260507174004 47 129 0.9 2.6 0.00 0.17 0.14 56 1018.4
20260507173504 47 144 1.7 5.2 0.00 0.17 0.14 58 1018.4
20260507173004 47 202 0.9 2.6 0.00 0.17 0.14 56 1018.3
20260507172503 48 169 0.0 1.7 0.00 0.17 0.14 55 1018.3
20260507172004 48 266 0.9 2.6 0.00 0.17 0.14 55 1018.3
20260507171504 48 252 0.9 2.6 0.00 0.17 0.14 54 1018.3
20260507170004 48 200 0.9 2.6 0.00 0.17 0.14 53 1018.4
20260507165504 48 271 1.7 5.2 0.00 0.17 0.14 54 1018.4
20260507165004 49 206 1.7 2.6 0.00 0.17 0.14 54 1018.5
20260507164504 50 230 2.6 5.2 0.00 0.17 0.14 54 1018.4
20260507164003 50 224 2.6 6.1 0.00 0.17 0.14 54 1018.4
20260507163004 51 275 1.7 5.2 0.00 0.17 0.14 53 1018.4
20260507162504 52 243 1.7 5.2 0.00 0.17 0.14 52 1018.3
20260507161503 50 268 1.7 2.6 0.00 0.17 0.14 52 1018.4
20260507161004 51 255 2.6 5.2 0.00 0.17 0.14 52 1018.4
20260507160503 51 260 1.7 6.1 0.00 0.17 0.14 52 1018.4
20260507160004 51 226 2.6 7.8 0.00 0.17 0.14 48 1018.5
20260507155504 52 297 2.6 6.1 0.00 0.17 0.14 52 1018.5
20260507155003 52 166 2.6 5.2 0.00 0.17 0.14 49 1018.5
20260507154504 52 289 2.6 6.1 0.00 0.17 0.14 48 1018.5
20260507154004 52 308 2.6 5.2 0.00 0.17 0.14 45 1018.5
20260507153504 52 313 1.7 6.1 0.00 0.17 0.14 46 1018.6
20260507153003 52 324 1.7 2.6 0.00 0.17 0.14 45 1018.6
20260507152503 52 297 1.7 5.2 0.00 0.17 0.14 50 1018.6
20260507152004 51 279 0.9 5.2 0.00 0.17 0.14 48 1018.6
20260507151504 52 296 2.6 6.1 0.00 0.17 0.14 50 1018.6
20260507150504 53 300 2.6 7.8 0.00 0.17 0.14 47 1018.6
20260507150004 53 293 1.7 4.3 0.00 0.17 0.14 49 1018.6
20260507145504 53 288 2.6 6.1 0.00 0.17 0.14 46 1018.6
20260507145003 53 286 1.7 6.1 0.00 0.17 0.14 50 1018.6
20260507144003 53 298 4.3 8.7 0.00 0.17 0.14 49 1018.7
20260507143503 53 285 1.7 5.2 0.00 0.17 0.14 49 1018.7
20260507143004 53 288 1.7 7.8 0.00 0.17 0.14 48 1018.7
20260507142504 52 237 2.6 5.2 0.00 0.17 0.14 41 1018.7
20260507142004 52 282 2.6 6.1 0.00 0.17 0.14 44 1018.8
20260507141504 50 207 1.7 7.8 0.00 0.17 0.14 42 1018.7
20260507141004 51 269 1.7 6.1 0.00 0.17 0.14 44 1018.8
20260507140003 51 245 2.6 6.1 0.00 0.17 0.14 45 1018.8
20260507135504 51 245 1.7 7.0 0.00 0.17 0.14 44 1018.7
20260507135003 51 253 2.6 7.0 0.00 0.17 0.14 44 1018.8
20260507134504 50 274 2.6 7.0 0.00 0.17 0.14 47 1018.8
20260507134004 49 268 2.6 7.8 0.00 0.17 0.14 50 1018.8
20260507133504 48 273 2.6 6.1 0.00 0.17 0.14 47 1018.8
20260507133004 50 154 2.6 7.0 0.00 0.17 0.14 45 1018.9
20260507132004 49 252 1.7 7.0 0.00 0.17 0.14 50 1018.9
20260507131503 49 161 0.9 2.6 0.00 0.17 0.14 49 1018.9
20260507130503 51 278 0.9 7.0 0.00 0.17 0.14 46 1018.9
20260507130004 52 129 1.7 10.4 0.00 0.17 0.14 46 1019.0
20260507125504 51 185 2.6 7.8 0.00 0.17 0.14 46 1018.9
20260507125004 51 152 2.6 7.0 0.00 0.17 0.14 47 1018.9
20260507124504 51 286 1.7 7.0 0.00 0.17 0.14 48 1018.9
20260507124004 52 271 1.7 5.2 0.00 0.17 0.14 46 1018.9
20260507122504 48 273 0.9 2.6 0.00 0.17 0.14 49 1018.9
20260507122004 47 254 1.7 6.1 0.00 0.17 0.14 54 1018.9
20260507121504 47 159 0.9 4.3 0.00 0.17 0.14 51 1018.9
20260507121004 48 353 0.9 2.6 0.00 0.17 0.14 50 1018.9
20260507120503 48 271 1.7 5.2 0.00 0.17 0.14 53 1018.9
20260507120004 47 186 1.7 7.0 0.00 0.17 0.14 52 1018.9
20260507115504 48 203 2.6 7.8 0.00 0.17 0.14 52 1018.9
20260507115004 47 150 2.6 7.8 0.00 0.17 0.14 53 1018.9
20260507114504 50 144 1.7 2.6 0.00 0.17 0.14 50 1018.8
20260507114004 48 247 1.7 10.4 0.00 0.17 0.14 54 1018.8
20260507113504 47 170 3.5 8.7 0.00 0.17 0.14 55 1018.9
20260507113004 47 166 2.6 7.8 0.00 0.17 0.14 54 1018.8
20260507112503 47 208 2.6 8.7 0.00 0.17 0.14 52 1018.8
20260507112004 49 155 1.7 7.0 0.00 0.17 0.14 50 1018.8
20260507111506 49 167 0.9 2.6 0.00 0.17 0.14 51 1018.9
20260507111004 49 273 1.7 4.3 0.00 0.17 0.14 51 1018.9
20260507110504 49 277 1.7 7.0 0.00 0.17 0.14 53 1018.8
20260507110004 47 163 2.6 6.1 0.00 0.17 0.14 54 1018.8
20260507105504 48 152 2.6 6.1 0.00 0.17 0.14 51 1018.8
20260507105004 51 253 3.5 7.0 0.00 0.17 0.14 50 1018.7
20260507104504 52 285 4.3 7.8 0.00 0.17 0.14 50 1018.7
20260507104004 51 286 2.6 7.0 0.00 0.17 0.14 51 1018.6
20260507103504 49 288 1.7 7.0 0.00 0.17 0.14 59 1018.5
20260507102503 49 255 3.5 7.8 0.00 0.17 0.14 52 1018.5
20260507102006 50 259 1.7 7.8 0.00 0.17 0.14 53 1018.6
20260507101504 49 270 2.6 7.0 0.00 0.17 0.14 54 1018.5
20260507101004 48 249 2.6 8.7 0.00 0.17 0.14 57 1018.6
20260507100004 47 180 1.7 7.0 0.00 0.17 0.14 56 1018.5
20260507095504 48 202 1.7 5.2 0.00 0.17 0.14 56 1018.4
20260507095004 48 175 2.6 7.8 0.00 0.17 0.14 55 1018.4
20260507094003 47 151 4.3 10.4 0.00 0.17 0.14 58 1018.4
20260507093504 48 259 3.5 8.7 0.00 0.17 0.14 55 1018.4
20260507093004 48 149 0.9 6.1 0.00 0.17 0.14 60 1018.4
20260507092504 47 138 2.6 8.7 0.00 0.17 0.14 58 1018.4
20260507092004 47 247 2.6 7.0 0.00 0.17 0.14 60 1018.4
20260507091503 46 257 1.7 8.7 0.00 0.17 0.14 66 1018.3
20260507091004 45 133 2.6 7.0 0.00 0.17 0.14 63 1018.3
20260507090503 46 228 1.7 7.8 0.00 0.17 0.14 62 1018.3
20260507090004 45 177 1.7 6.1 0.00 0.18 0.14 66 1018.2
20260507085503 44 155 2.6 5.2 0.00 0.18 0.14 65 1018.2
20260507085003 46 184 1.7 4.3 0.00 0.18 0.14 66 1018.1
20260507084503 46 174 0.9 4.3 0.00 0.19 0.14 64 1018.2
20260507083504 44 175 1.7 7.0 0.00 0.20 0.14 66 1018.0
20260507082504 44 209 1.7 2.6 0.00 0.21 0.14 67 1018.0
20260507082004 43 152 1.7 7.0 0.00 0.21 0.14 67 1018.0
20260507081504 44 150 2.6 6.1 0.00 0.21 0.14 67 1017.9
20260507081004 43 210 1.7 7.8 0.00 0.21 0.14 67 1017.8
20260507080504 44 250 2.6 6.1 0.00 0.21 0.14 66 1017.8
20260507075004 43 207 0.9 7.8 0.00 0.21 0.14 69 1017.6
20260507074503 43 253 1.7 4.3 0.00 0.21 0.14 70 1017.6
20260507074003 42 229 1.7 5.2 0.00 0.21 0.14 69 1017.5
20260507073503 42 183 1.7 2.6 0.00 0.21 0.14 71 1017.5
20260507073004 41 205 0.9 2.6 0.00 0.21 0.14 72 1017.5
20260507072504 41 250 1.7 6.1 0.00 0.21 0.14 70 1017.5
20260507072004 41 296 1.7 5.2 0.00 0.22 0.14 71 1017.4
20260507071504 41 279 3.5 6.1 0.00 0.22 0.14 71 1017.4
20260507071004 40 277 0.9 5.2 0.00 0.22 0.14 72 1017.3
20260507070504 40 205 1.7 2.6 0.00 0.23 0.14 73 1017.3
20260507070009 40 167 0.9 2.6 0.00 0.23 0.14 73 1017.2
20260507065504 40 197 1.7 2.6 0.00 0.23 0.14 73 1017.2
20260507065004 40 205 1.7 7.0 0.00 0.24 0.14 74 1017.2
20260507064503 39 187 1.7 2.6 0.00 0.24 0.14 75 1017.2
20260507064004 39 166 0.9 4.3 0.00 0.24 0.14 76 1017.1
20260507063504 39 192 1.7 4.3 0.00 0.24 0.14 77 1017.1
20260507063004 39 189 0.9 2.6 0.00 0.24 0.14 77 1017.1
20260507062003 39 280 1.7 6.1 0.00 0.24 0.14 79 1017.2
20260507061503 39 275 1.7 6.1 0.00 0.25 0.14 80 1017.2
20260507061003 38 203 1.7 4.3 0.00 0.25 0.14 81 1017.2
20260507060504 38 139 0.9 4.3 0.00 0.26 0.14 82 1017.1
20260507060003 37 229 0.9 4.3 0.00 0.26 0.14 83 1017.1
20260507055004 37 193 0.9 1.7 0.00 0.27 0.14 85 1016.9
20260507054004 37 125 0.9 7.0 0.00 0.28 0.14 86 1016.9
20260507053504 37 248 1.7 5.2 0.00 0.28 0.14 85 1016.9
20260507053004 37 234 1.7 7.0 0.00 0.28 0.14 85 1016.8
20260507052003 37 205 0.9 5.2 0.00 0.28 0.14 85 1016.7
20260507051503 37 267 1.7 6.1 0.00 0.28 0.14 84 1016.8
20260507051003 37 161 1.7 7.0 0.00 0.28 0.14 84 1016.7
20260507050504 37 176 1.7 7.8 0.00 0.29 0.14 84 1016.6
20260507050004 37 203 2.6 7.0 0.00 0.29 0.14 84 1016.6
20260507045504 37 156 1.7 5.2 0.00 0.30 0.14 85 1016.5
20260507045003 37 252 1.7 7.0 0.00 0.30 0.14 85 1016.5
20260507044504 37 291 1.7 7.0 0.00 0.31 0.14 85 1016.4
20260507043004 37 163 0.9 7.8 0.00 0.31 0.14 83 1016.5
20260507042503 37 152 3.5 8.7 0.00 0.31 0.14 83 1016.4
20260507042004 37 243 1.7 6.1 0.00 0.31 0.14 83 1016.3
20260507041004 37 263 2.6 6.1 0.00 0.31 0.14 83 1016.2
20260507040004 37 205 0.9 2.6 0.00 0.31 0.14 83 1016.1
20260507035504 37 223 0.9 4.3 0.00 0.32 0.14 84 1016.1
20260507035004 37 259 1.7 2.6 0.00 0.32 0.14 84 1016.1
20260507034504 37 228 0.9 2.6 0.00 0.32 0.14 83 1016.0
20260507034004 37 160 1.7 6.1 0.00 0.33 0.14 84 1016.1
20260507033504 37 174 0.9 4.3 0.00 0.33 0.14 83 1016.1
20260507033004 37 256 1.7 6.1 0.00 0.33 0.14 83 1016.2
20260507032003 37 168 0.9 2.6 0.00 0.33 0.14 83 1016.1
20260507031003 37 251 1.7 5.2 0.00 0.33 0.14 84 1016.0
20260507030504 36 275 1.7 7.0 0.00 0.33 0.14 84 1015.9